Agadir Al Massira, Morocco

9:38 PM WEST on July 25, 2017 (GMT +0100)
Agadir Al Massira

Weather History for GMAD - February, 2013

Change the Weather History Date:

Saturday, February 23, 2013

  Actual Average Record
Temperature  
Mean Temperature 65 °F -  
Max Temperature 76 °F - - ()
Min Temperature 54 °F - - ()
Growing Degree Days 15 (Base 50)    
Moisture  
Dew Point 49 °F    
Average Humidity 62    
Maximum Humidity 94    
Minimum Humidity 25    
Precipitation  
Precipitation 0.00 in - - ()
Sea Level Pressure  
Sea Level Pressure 30.01 in    
Wind  
Wind Speed 9 mph ()    
Max Wind Speed 20 mph    
Max Gust Speed -    
Visibility 6.1 miles    
Events      
T = Trace of Precipitation, MM = Missing Value Source: Averaged Metar Reports

Daily Weather History Graph

Daily Weather History Graph

Search for Another Location

Airport or City:

Trip Planner

Search our weather history database for the weather conditions in past years. The results will help you decide how hot, cold, wet, or windy it might be!

Date:

Astronomy

Feb. 23, 2013 Rise Set
Actual Time 7:10 AM WET 6:32 PM WET
Civil Twilight 6:45 AM WET 6:56 PM WET
Nautical Twilight 6:17 AM WET 7:24 PM WET
Astronomical Twilight 5:50 AM WET 7:52 PM WET
Moon 4:34 PM WET (2/23) 5:18 AM WET (2/23)
Length of Visible Light 12h 10m
Length of Day
11h 22m
Waxing Gibbous, 94% of the Moon is Illuminated
Feb 23
Waxing Gibbous
Feb 25
Full
Mar 4
Last Quarter
Mar 11
New
Mar 19
First Quarter

Hourly Weather History & Observations

Time (WET) Temp. Dew Point Humidity Pressure Visibility Wind Dir Wind Speed Gust Speed Precip Events Conditions
12:00 AM 60 °F 58 °F 90% 30.09 in 6 mi WSW 10.4 mph - -   Partly Cloudy
12:00 AM 59.0 °F 57.2 °F 94% 30.06 in 6.2 mi WSW 10.4 mph - N/A   Scattered Clouds
2:00 AM 59.0 °F 57.2 °F 94% 30.06 in - SW 4.6 mph - N/A   Unknown
3:00 AM 58 °F 55 °F 87% 30.04 in 6 mi SW 1.2 mph - -   Partly Cloudy
3:00 AM 57.2 °F 55.4 °F 94% 30.04 in 6.2 mi Variable 1.2 mph - N/A   Scattered Clouds
4:00 AM 57.2 °F 55.4 °F 94% 30.01 in 6.2 mi WSW 5.8 mph - N/A   Scattered Clouds
6:00 AM 56 °F 53 °F 84% 30.03 in 6 mi West 9.2 mph - -   Partly Cloudy
6:00 AM 55.4 °F 53.6 °F 94% 30.01 in 6.2 mi WSW 8.1 mph - N/A   Scattered Clouds
7:00 AM 57.2 °F 51.8 °F 82% 30.04 in 6.2 mi West 9.2 mph - N/A   Scattered Clouds
8:00 AM 59.0 °F 50.0 °F 72% 30.04 in 6.2 mi WSW 6.9 mph - N/A   Partly Cloudy
9:00 AM 62 °F 48 °F 49% 30.06 in 6 mi West 13.8 mph - -   Partly Cloudy
9:00 AM 62.6 °F 48.2 °F 59% 30.04 in 6.2 mi West 13.8 mph - N/A   Partly Cloudy
10:00 AM 66.2 °F 44.6 °F 46% 30.04 in 6.2 mi West 15.0 mph - N/A   Partly Cloudy
11:00 AM 68.0 °F 44.6 °F 43% 30.04 in 6.2 mi West 19.6 mph - N/A   Partly Cloudy
12:00 PM 68.0 °F 42.8 °F 40% 30.01 in 6.2 mi West 18.4 mph - N/A   Partly Cloudy
1:00 PM 71.6 °F 42.8 °F 35% 29.98 in 6.2 mi WSW 16.1 mph - N/A   Partly Cloudy
2:00 PM 71.6 °F 46.4 °F 41% 29.95 in 6.2 mi WSW 17.3 mph - N/A   Unknown
3:00 PM 74 °F 45 °F 25% 29.94 in 6 mi WSW 15.0 mph - -  
3:00 PM 73.4 °F 42.8 °F 33% 29.95 in - West 16.1 mph - N/A   Clear
4:00 PM 75.2 °F 39.2 °F 27% 29.92 in - West 17.3 mph - N/A   Clear
5:00 PM 73.4 °F 37.4 °F 27% 29.92 in - West 18.4 mph - N/A   Clear
6:00 PM 69 °F 44 °F 28% 29.95 in 6 mi West 17.3 mph - -  
6:00 PM 68.0 °F 42.8 °F 40% 29.95 in - West 17.3 mph - N/A   Clear
7:00 PM 62.6 °F 48.2 °F 59% 29.98 in - South 5.8 mph - N/A   Clear
8:00 PM 60.8 °F 48.2 °F 63% 29.98 in - South 8.1 mph - N/A   Clear
9:00 PM 58 °F 49 °F 63% 30.01 in 6 mi South 6.9 mph - -  
9:00 PM 59.0 °F 48.2 °F 67% 29.98 in - South 6.9 mph - N/A   Clear
10:00 PM 57.2 °F 50.0 °F 77% 30.04 in - South 10.4 mph - N/A   Clear
11:00 PM 57.2 °F 50.0 °F 77% 30.04 in - South 11.5 mph - N/A   Clear